Location: Unspecified
(0.0000°N, 0.0000°E)
Time: 22:58:00
(UTC+00:00)

AO-85 - Pass Details

Date: 01 December 2021
Orbit: 521 x 762 km, 64.8° (Epoch: 12 March)

Event Time Altitude Azimuth Distance (km) Brightness Sun altitude
Exits shadow 03:20:08 13° 64° (ENE) 1,830 ? -34.2°
Maximum altitude 03:20:17 13° 66° (ENE) 1,826 ? -34.1°
Drops below altitude 10° 03:22:18 10° 93° (E) 1,978 ? -33.7°
Sets 03:25:41 0° 121° (ESE) 2,826 ? -32.9°
